Regional Weather Roundup
Issued by NWS

Current Version | Previous Version | Text Only | Print | Product List | Glossary Off
Versions: 1 2 3 4 5 6 7 8 9 10 11 12 13 14 15 16 17 18 19 20 21 22 23 24 25 26 27 28 29 30 31 32 33 34 35 36 37 38 39 40 41 42 43 44 45 46 47 48 49 50

000
ASUS44 KBMX 311610
RWRAL

ALABAMA REGIONAL WEATHER ROUNDUP
NATIONAL WEATHER SERVICE BIRMINGHAM AL
1000 AM CST SAT JAN 31 2015

NOTE: "FAIR" INDICATES FEW OR NO CLOUDS BELOW 12,000 FEET
WITH NO SIGNIFICANT WEATHER AND/OR OBSTRUCTIONS TO VISIBILITY.

THE REMARK "TC" DENOTES TEMPERATURE IN DEGREES CELSIUS.

ALZ001>011-014-016>018-020-311700-
NORTH ALABAMA

CITY           SKY/WX    TMP DP  RH WIND       PRES   REMARKS
MUSCLE SHOALS  CLOUDY    40  25  55 E6        30.41F
HUNTSVILLE     CLOUDY    40  23  50 CALM      30.41R
DECATUR        PTSUNNY   38  24  57 SE3       30.41S
HALEYVILLE       N/A     42  23  47 CALM      30.41S
GADSDEN        PTSUNNY  N/A N/A N/A NE7       30.41S
$$

ALZ012-013-022-023-030>036-040>044-311700-
WEST CENTRAL ALABAMA

CITY           SKY/WX    TMP DP  RH WIND       PRES   REMARKS
TUSCALOOSA     MOSUNNY   44  23  43 NE8       30.41R
$$

ALZ015-024>027-033>036-040>044-311700-
CENTRAL ALABAMA

CITY           SKY/WX    TMP DP  RH WIND       PRES   REMARKS
BIRMINGHAM     PTSUNNY   45  17  32 NE6       30.41R
MONTGOMERY     SUNNY     47  22  37 E10       30.40S
SHELBY CO ARPT SUNNY     45  21  38 E6        30.39S
MAXWELL AFB    SUNNY     46  22  39 E6        30.40S
GREENVILLE     FAIR      49  21  33 SE9       30.36S
$$

ALZ019-021-028-029-037-038-045>048-311700-
EAST CENTRAL ALABAMA

CITY           SKY/WX    TMP DP  RH WIND       PRES   REMARKS
ANNISTON       PTSUNNY   44  17  33 NE7       30.40S
ALEXANDER CITY SUNNY     49  17  27 E8        30.39S
AUBURN         SUNNY     45  18  33 E6        30.41S
$$

ALZ051>064-311700-
SOUTHWEST ALABAMA

CITY           SKY/WX    TMP DP  RH WIND       PRES   REMARKS
MOBILE         PTSUNNY   49  24  37 E9        30.36R
BROOKLEY FIELD SUNNY     48  28  46 E6        30.38R
EVERGREEN      SUNNY     47  25  42 E7        30.37S
$$

ALZ049-050-065>069-311700-
SOUTHEAST ALABAMA

CITY           SKY/WX    TMP DP  RH WIND       PRES   REMARKS
DOTHAN         SUNNY     48  25  40 E9        30.41R
OZARK          SUNNY     49  23  35 E8        30.37R
TROY           SUNNY     49  21  33 E9        30.39R
EUFAULA        FAIR      49  24  37 VRB5      30.39S
$$


USA.gov is the U.S. government's official web portal to all federal, state and local government web resources and services.